• In Russia
  • List of Countries
  • For 7 days
  • Water Temperature
  • Weather Map
  • Weather Widgets
  • user-avatar
    Login

    Hourly Weather Kabul

    Today, 16 December, Monday

    Time Temperature Precipitation Wind Pressure Humidity
    00:00 -1°C° 0 mm 1 mps 609 mmHg 33%
    01:00 -1°C° 0 mm 1 mps 609 mmHg 33%
    02:00 -1°C° 0 mm 1 mps 608 mmHg 32%
    03:00 -1°C° 0 mm 1 mps 608 mmHg 32%
    04:00 -1°C° 0 mm 1 mps 608 mmHg 31%
    05:00 -2°C° 0 mm 1 mps 608 mmHg 33%
    06:00 -1°C° 0 mm 1 mps 608 mmHg 32%
    07:00 -1°C° 0 mm 1 mps 608 mmHg 31%
    08:00 -1°C° 0 mm 1 mps 609 mmHg 30%
    09:00 0°C° 0 mm 1 mps 609 mmHg 27%
    10:00 +2°C° 0 mm 1 mps 609 mmHg 25%
    11:00 +4°C° 0 mm 1 mps 610 mmHg 23%
    12:00 +4°C° 0 mm 1 mps 609 mmHg 23%
    13:00 +5°C° 0 mm 1 mps 609 mmHg 22%
    14:00 +5°C° 0 mm 1 mps 609 mmHg 22%
    15:00 +4°C° 0 mm 1 mps 609 mmHg 25%
    16:00 +2°C° 0 mm 0 mps 608 mmHg 29%
    17:00 +1°C° 0 mm 0 mps 608 mmHg 32%
    18:00 0°C° 0 mm 0 mps 608 mmHg 32%
    19:00 +1°C° 0 mm 1 mps 609 mmHg 31%
    20:00 0°C° 0 mm 1 mps 609 mmHg 30%
    21:00 0°C° 0 mm 1 mps 609 mmHg 30%
    22:00 0°C° 0 mm 1 mps 609 mmHg 29%
    23:00 0°C° 0 mm 1 mps 609 mmHg 28%

    Tomorrow, 17 December, Tuesday

    Time Temperature Precipitation Wind Pressure Humidity
    00:00 0°C° 0 mm 1 mps 609 mmHg 28%
    01:00 0°C° 0 mm 1 mps 609 mmHg 28%
    02:00 -1°C° 0 mm 1 mps 609 mmHg 28%
    03:00 -1°C° 0 mm 1 mps 609 mmHg 27%
    04:00 -1°C° 0 mm 1 mps 609 mmHg 27%
    05:00 -1°C° 0 mm 1 mps 609 mmHg 26%
    06:00 -1°C° 0 mm 1 mps 609 mmHg 26%
    07:00 -3°C° 0 mm 2 mps 609 mmHg 25%
    08:00 -3°C° 0 mm 2 mps 609 mmHg 24%
    09:00 -1°C° 0 mm 2 mps 610 mmHg 24%
    10:00 +2°C° 0 mm 2 mps 610 mmHg 23%
    11:00 +3°C° 0 mm 2 mps 610 mmHg 22%
    12:00 +4°C° 0 mm 2 mps 610 mmHg 22%
    13:00 +6°C° 0 mm 1 mps 609 mmHg 22%
    14:00 +6°C° 0 mm 1 mps 609 mmHg 22%
    15:00 +5°C° 0 mm 1 mps 609 mmHg 26%
    16:00 +5°C° 0 mm 1 mps 608 mmHg 29%
    17:00 +4°C° 0 mm 1 mps 608 mmHg 33%
    18:00 +3°C° 0 mm 1 mps 608 mmHg 33%
    19:00 +3°C° 0 mm 1 mps 608 mmHg 32%
    20:00 +2°C° 0 mm 1 mps 608 mmHg 32%
    21:00 +2°C° 0 mm 1 mps 608 mmHg 31%
    22:00 +2°C° 0 mm 1 mps 608 mmHg 31%
    23:00 +2°C° 0 mm 1 mps 607 mmHg 31%

    Day after tomorrow, 18 December, Wednesday

    Time Temperature Precipitation Wind Pressure Humidity
    00:00 +2°C° 0 mm 1 mps 607 mmHg 30%
    01:00 +2°C° 0 mm 1 mps 607 mmHg 30%
    02:00 +3°C° 0 mm 1 mps 607 mmHg 30%
    03:00 +3°C° 0 mm 1 mps 607 mmHg 31%
    04:00 +2°C° 0 mm 1 mps 606 mmHg 31%
    05:00 +2°C° 0 mm 1 mps 606 mmHg 32%
    06:00 +2°C° 0 mm 1 mps 606 mmHg 32%
    07:00 +3°C° 0 mm 1 mps 607 mmHg 32%
    08:00 +3°C° 0 mm 1 mps 607 mmHg 32%
    09:00 +4°C° 0 mm 1 mps 608 mmHg 30%
    10:00 +6°C° 0 mm 1 mps 608 mmHg 28%
    11:00 +8°C° 0 mm 1 mps 609 mmHg 25%
    12:00 +8°C° 0 mm 1 mps 609 mmHg 25%
    13:00 +9°C° 0 mm 1 mps 609 mmHg 25%
    14:00 +9°C° 0 mm 1 mps 608 mmHg 25%
    15:00 +8°C° 0 mm 1 mps 608 mmHg 28%
    16:00 +7°C° 0 mm 1 mps 608 mmHg 31%
    17:00 +6°C° 0 mm 1 mps 608 mmHg 34%
    18:00 +6°C° 0 mm 1 mps 608 mmHg 36%
    19:00 +5°C° 0 mm 1 mps 608 mmHg 37%
    20:00 +5°C° 0 mm 1 mps 608 mmHg 39%
    21:00 +4°C° 0 mm 1 mps 608 mmHg 40%
    22:00 +4°C° 0 mm 1 mps 608 mmHg 42%
    23:00 +3°C° 0 mm 1 mps 608 mmHg 43%

    19 December, Thursday

    Time Temperature Precipitation Wind Pressure Humidity
    00:00 +3°C° 0 mm 1 mps 608 mmHg 44%
    01:00 +3°C° 0 mm 1 mps 607 mmHg 44%
    02:00 +3°C° 0 mm 1 mps 607 mmHg 45%
    03:00 +3°C° 0 mm 1 mps 607 mmHg 46%
    04:00 +2°C° 0 mm 1 mps 607 mmHg 47%
    05:00 +2°C° 0 mm 1 mps 607 mmHg 48%
    06:00 +2°C° 0 mm 1 mps 607 mmHg 48%
    07:00 +2°C° 0 mm 1 mps 607 mmHg 48%
    08:00 +2°C° 0 mm 1 mps 608 mmHg 48%
    09:00 +4°C° 0 mm 1 mps 608 mmHg 45%
    10:00 +5°C° 0 mm 1 mps 609 mmHg 42%
    11:00 +7°C° 0 mm 1 mps 609 mmHg 39%
    12:00 +7°C° 0 mm 1 mps 609 mmHg 39%
    13:00 +8°C° 0 mm 1 mps 608 mmHg 39%
    14:00 +8°C° 0 mm 1 mps 608 mmHg 39%
    15:00 +7°C° 0 mm 1 mps 608 mmHg 43%
    16:00 +7°C° 0 mm 1 mps 607 mmHg 47%
    17:00 +6°C° 0 mm 1 mps 607 mmHg 51%
    18:00 +5°C° 0 mm 1 mps 607 mmHg 55%
    19:00 +5°C° 0 mm 1 mps 608 mmHg 59%
    20:00 +4°C° 0 mm 1 mps 608 mmHg 63%
    21:00 +4°C° 0 mm 1 mps 608 mmHg 63%
    22:00 +3°C° 0 mm 1 mps 608 mmHg 63%
    23:00 +3°C° 0 mm 1 mps 608 mmHg 63%

    20 December, Friday

    Time Temperature Precipitation Wind Pressure Humidity
    00:00 +3°C° 0 mm 1 mps 607 mmHg 63%
    01:00 +2°C° 0 mm 1 mps 607 mmHg 63%
    02:00 +2°C° 0 mm 1 mps 607 mmHg 62%
    03:00 +1°C° 0 mm 1 mps 606 mmHg 61%
    04:00 +1°C° 0 mm 1 mps 606 mmHg 61%
    05:00 +1°C° 0 mm 1 mps 606 mmHg 60%
    06:00 +1°C° 0 mm 1 mps 606 mmHg 59%
    07:00 +1°C° 0 mm 1 mps 606 mmHg 58%
    08:00 +1°C° 0 mm 1 mps 607 mmHg 57%
    09:00 +2°C° 0 mm 1 mps 607 mmHg 52%
    10:00 +4°C° 0 mm 1 mps 607 mmHg 46%
    11:00 +5°C° 0 mm 1 mps 608 mmHg 41%
    12:00 +6°C° 0 mm 1 mps 607 mmHg 39%
    13:00 +6°C° 0 mm 1 mps 607 mmHg 37%
    14:00 +7°C° 0 mm 1 mps 607 mmHg 35%
    15:00 +6°C° 0 mm 1 mps 607 mmHg 37%
    16:00 +6°C° 0 mm 1 mps 606 mmHg 40%
    17:00 +5°C° 0 mm 1 mps 606 mmHg 42%
    18:00 +4°C° 0 mm 1 mps 607 mmHg 42%
    19:00 +3°C° 0 mm 1 mps 607 mmHg 42%
    20:00 +2°C° 0 mm 2 mps 607 mmHg 42%
    21:00 +1°C° 0 mm 2 mps 607 mmHg 41%
    22:00 +2°C° 0 mm 1 mps 607 mmHg 40%
    23:00 +2°C° 0 mm 1 mps 607 mmHg 39%

    21 December, Saturday

    Time Temperature Precipitation Wind Pressure Humidity
    00:00 +1°C° 0 mm 1 mps 607 mmHg 39%
    01:00 +1°C° 0 mm 1 mps 607 mmHg 38%
    02:00 +1°C° 0 mm 1 mps 607 mmHg 38%
    03:00 -2°C° 0 mm 2 mps 607 mmHg 38%
    04:00 -2°C° 0 mm 2 mps 607 mmHg 38%
    05:00 -2°C° 0 mm 2 mps 606 mmHg 38%
    06:00 -2°C° 0 mm 2 mps 607 mmHg 37%
    07:00 -2°C° 0 mm 2 mps 607 mmHg 37%
    08:00 -2°C° 0 mm 2 mps 607 mmHg 36%
    09:00 -1°C° 0 mm 2 mps 607 mmHg 33%
    10:00 +2°C° 0 mm 2 mps 608 mmHg 29%
    11:00 +4°C° 0 mm 2 mps 608 mmHg 26%
    12:00 +4°C° 0 mm 2 mps 607 mmHg 25%
    13:00 +5°C° 0 mm 2 mps 607 mmHg 24%
    14:00 +6°C° 0 mm 2 mps 607 mmHg 23%
    15:00 +6°C° 0 mm 1 mps 606 mmHg 26%
    16:00 +5°C° 0 mm 1 mps 606 mmHg 29%
    17:00 +4°C° 0 mm 1 mps 606 mmHg 31%
    18:00 +4°C° 0 mm 1 mps 606 mmHg 32%
    19:00 +3°C° 0 mm 1 mps 606 mmHg 33%
    20:00 +2°C° 0 mm 1 mps 606 mmHg 33%
    21:00 +2°C° 0 mm 1 mps 606 mmHg 33%
    22:00 +2°C° 0 mm 1 mps 606 mmHg 32%
    23:00 +2°C° 0 mm 1 mps 606 mmHg 32%
    Show more